Content
SEND FEEDBACK

Daily
Averages
Monthly
Summary
United States of America

FARMINGDALE, SOUTH DAKOTA


Home > North America > United States > South Dakota
Elevation: 2990 feet     Latitude: 43 59N     Longitude: 102 54W

WEATHER
 
SELECT A DAY
Number of Records: 200,600;   Date Range: 1/1/95 - 9/22/14
 
SHARE

PRINT THIS DATA

[ ← Previous Day ]
WEATHER ALMANAC - DECEMBER 7, 2013
[ Next Day → ]
[ °C ]   °F
Weather ElementAverageHighLow
Temperature-8.4 °F-5.8 °F (1:02 pm)-14.1 °F (3:52 am)
Dewpoint-14.7 °F-11.2 °F (11:09 pm)-20 °F (3:52 am)
Humidity74 %77 % (4:30 am)65 % (1:11 pm)
Barometer30.39 in30.71 in (1:52 am)30.02 in (11:38 pm)
Wind Speed4.6 mph8.1 mph (2:52 pm)
Weather ElementAverage
Visibility6.7 mi
Wind DirectionESE (111.8 °)

Weather ElementTotal
Precipitation0.05 in
Heating Degree Days75 (Base 65)
Averaged from 39 records on December 7, 2013
WEATHER CONDITIONS BREAKOUT
WIND DIRECTION BREAKOUT
WEATHER BY HOUR - DECEMBER 7, 2013
[ °C ]   °F
Local TimeTemperatureDewpointHumidityBarometerVisibilityWind DirectionWind SpeedGust SpeedPrecipitationEventsConditions
1:52 AM-11.0 °F-18.0 °F71 %30.71 in7.0 miNorth (350°)4.6 mph0.00 inSnowLight Snow
2:52 AM-11.9 °F-18.0 °F74 %30.71 in10.0 miNNW (340°)4.6 mph0.00 inOvercast
3:52 AM-14.1 °F-20.0 °F75 %30.70 in10.0 miNNW (330°)4.6 mphScattered Clouds
4:30 AM-13.0 °F-18.4 °F77 %30.40 in10.0 miNW (310°)3.5 mphOvercast
4:52 AM-13.0 °F-18.9 °F75 %30.70 in10.0 miCalmMostly Cloudy
5:01 AM-13.0 °F-18.4 °F77 %30.39 in10.0 miCalmMostly Cloudy
5:52 AM-11.9 °F-18.9 °F71 %30.70 in10.0 miNorth (10°)4.6 mphOvercast
6:52 AM-11.0 °F-18.0 °F71 %30.69 in7.0 miNNE (30°)4.6 mphOvercast
7:52 AM-11.0 °F-17.0 °F75 %30.68 in5.0 miENE (60°)3.5 mphHaze
8:52 AM-9.9 °F-16.1 °F74 %30.67 in3.0 miCalmHaze
9:01 AM-9.4 °F-16.6 °F71 %30.36 in5.0 miENE (60°)3.5 mphHaze
9:52 AM-9.0 °F-16.1 °F71 %30.66 in5.0 miNE (50°)3.5 mphHaze
10:52 AM-8.0 °F-15.0 °F71 %30.63 in9.0 miEast (100°)4.6 mphOvercast
11:52 AM-6.0 °F-13.0 °F72 %30.58 in9.0 miVariable3.5 mphOvercast
12:52 PM-6.0 °F-13.0 °F72 %30.56 in8.0 miEast (100°)5.8 mphMostly Cloudy
1:02 PM-5.8 °F-13.0 °F71 %30.24 in9.0 miESE (110°)6.9 mphMostly Cloudy
1:11 PM-5.8 °F-14.8 °F65 %30.24 in10.0 miEast (100°)6.9 mphPartly Cloudy
1:52 PM-7.1 °F-14.1 °F72 %30.50 in9.0 miEast (90°)6.9 mphMostly Cloudy
1:59 PM-7.6 °F-14.8 °F71 %30.20 in7.0 miEast (90°)5.8 mphMostly Cloudy
2:52 PM-7.1 °F-14.1 °F72 %30.49 in6.0 miEast (90°)8.1 mphHaze
3:31 PM-7.6 °F-14.8 °F71 %30.19 in9.0 miEast (100°)6.9 mphMostly Cloudy
3:52 PM-8.0 °F-14.1 °F75 %30.49 in9.0 miEast (80°)6.9 mphOvercast
4:52 PM-8.0 °F-14.1 °F75 %30.47 in6.0 miESE (110°)5.8 mph0.00 inSnowLight Snow
5:52 PM-8.0 °F-14.1 °F75 %30.44 in9.0 miESE (110°)4.6 mph0.00 inSnowLight Snow
6:24 PM-7.6 °F-13.0 °F77 %30.13 in9.0 miESE (120°)5.8 mph0.00 inSnowLight Snow
6:52 PM-7.1 °F-13.0 °F75 %30.42 in9.0 miESE (120°)4.6 mph0.00 inSnowLight Snow
7:35 PM-7.6 °F-13.0 °F77 %30.12 in7.0 miESE (120°)4.6 mph0.00 inSnowLight Snow
7:52 PM-7.1 °F-13.0 °F75 %30.40 in4.0 miEast (100°)3.5 mph0.00 inSnowLight Snow
7:59 PM-7.6 °F-13.0 °F77 %30.11 in2.0 miSE (130°)3.5 mph0.00 inSnowLight Snow
8:23 PM-7.6 °F-13.0 °F77 %30.10 in2.5 miSE (130°)3.5 mph0.01 inSnowLight Snow
8:35 PM-7.6 °F-13.0 °F77 %30.09 in3.0 miESE (120°)3.5 mph0.01 inSnowLight Snow
8:52 PM-7.1 °F-13.0 °F75 %30.38 in3.0 miESE (110°)3.5 mph0.01 inSnowLight Snow
9:04 PM-7.6 °F-13.0 °F77 %30.08 in2.5 miESE (120°)3.5 mph0.00 inSnowLight Snow
9:16 PM-7.6 °F-13.0 °F77 %30.08 in4.0 miESE (120°)4.6 mph0.00 inSnowLight Snow
9:52 PM-7.1 °F-13.0 °F75 %30.35 in9.0 miESE (110°)5.8 mph0.00 inSnowLight Snow
10:52 PM-6.0 °F-11.9 °F75 %30.32 in9.0 miEast (100°)5.8 mph0.00 inSnowLight Snow
11:09 PM-5.8 °F-11.2 °F77 %30.03 in2.5 miESE (110°)5.8 mph0.00 inSnowLight Snow
11:38 PM-5.8 °F-11.2 °F77 %30.02 in2.0 miESE (120°)5.8 mph0.01 inSnowLight Snow
11:52 PM-6.0 °F-11.9 °F75 %30.29 in2.0 miESE (110°)4.6 mph0.01 inSnowLight Snow
Hourly data recorded from KRAP, located miles away from Farmingdale, South Dakota







STORIES FROM OUR PARTNERS